Location: Madrid
(40.4000°N, 3.6830°W)
Time: 00:24:37
(UTC+02:00)

ISS - Pass Details

Date: 01 August 2020
Orbit: 418 x 420 km, 51.6° (Epoch: 08 August)

Event Time Altitude Azimuth Distance (km) Brightness Sun altitude
Rises 23:33:16 0° 299° (WNW) 2,368 1.4 -20.0°
Reaches altitude 10° 23:35:31 10° 288° (WNW) 1,501 -0.1 -20.3°
Enters shadow 23:38:17 30° 234° (SW) 783 -2.4 -20.7°
